Weather History for Wrangell, AK

Change the Weather History Date:

Tuesday, December 4, 2012

  Actual Average Record
Temperature  
Mean Temperature 26 °F -  
Max Temperature 28 °F 35 °F 49 °F (1963)
Min Temperature 24 °F 26 °F -1 °F (1970)
Degree Days  
Heating Degree Days 39    
Moisture  
Dew Point 21 °F    
Average Humidity 79    
Maximum Humidity 86    
Minimum Humidity 69    
Precipitation  
Precipitation 0.00 in - - ()
Sea Level Pressure  
Sea Level Pressure 29.27 in    
Wind  
Wind Speed 6 mph (NNW)    
Max Wind Speed 10 mph    
Max Gust Speed -    
Visibility 5 miles    
Events      
Averages and records for this station are not official NWS values.
T = Trace of Precipitation, MM = Missing Value Source: NWS Daily Summary

Daily Weather History Graph

Daily Weather History Graph

Search for Another Location

Airport:

Trip Planner

Search our weather history database for the weather conditions in past years. The results will help you decide how hot, cold, wet, or windy it might be!

Date:

Astronomy

Dec. 04, 2012 Rise Set
Actual Time 8:05 AM AKST 3:14 PM AKST
Civil Twilight 7:18 AM AKST 4:01 PM AKST
Nautical Twilight 6:29 AM AKST 4:50 PM AKST
Astronomical Twilight 5:43 AM AKST 5:36 PM AKST
Moon 9:57 PM AKST (12/4) 11:19 AM AKST (12/4)
Length of Visible Light 8h 43m
Length of Day
7h 09m
Waning Gibbous, 68% of the Moon is Illuminated
Dec 4
Waning Gibbous
Dec 6
Last Quarter
Dec 12
New
Dec 19
First Quarter
Dec 28
Full

Hourly Weather History & Observations

Time (AKST) Temp. Windchill Dew Point Humidity Pressure Visibility Wind Dir Wind Speed Gust Speed Precip Events Conditions
12:16 AM 26.6 °F 19.1 °F 19.4 °F 74% 29.24 in 10.0 mi NNW 6.9 mph - N/A   Overcast
12:36 AM 28.4 °F 22.2 °F 19.4 °F 69% 29.23 in 5.0 mi NNW 5.8 mph - N/A   Overcast
12:56 AM 28.4 °F 21.2 °F 21.2 °F 74% 29.22 in 10.0 mi North 6.9 mph - N/A   Overcast
1:16 AM 28.4 °F 22.2 °F 21.2 °F 74% 29.22 in 9.0 mi North 5.8 mph - N/A   Overcast
1:36 AM 28.4 °F 23.3 °F 21.2 °F 74% 29.21 in 3.0 mi North 4.6 mph - N/A   Overcast
1:56 AM 28.4 °F - 23.0 °F 80% 29.21 in 3.0 mi Calm Calm - N/A   Overcast
2:16 AM 28.4 °F 22.2 °F 21.2 °F 74% 29.20 in 3.0 mi NNW 5.8 mph - N/A   Overcast
2:36 AM 26.6 °F 19.1 °F 21.2 °F 80% 29.19 in 5.0 mi NNW 6.9 mph - N/A   Overcast
2:56 AM 26.6 °F 19.1 °F 21.2 °F 80% 29.19 in 4.0 mi NNW 6.9 mph - N/A   Overcast
3:16 AM 26.6 °F 18.2 °F 21.2 °F 80% 29.18 in 4.0 mi NNW 8.1 mph - N/A   Overcast
3:36 AM 26.6 °F 19.1 °F 21.2 °F 80% 29.18 in 8.0 mi NNW 6.9 mph - N/A   Overcast
3:56 AM 26.6 °F 21.2 °F 21.2 °F 80% 29.16 in 3.0 mi NNW 4.6 mph - N/A   Overcast
4:16 AM 26.6 °F 18.2 °F 21.2 °F 80% 29.16 in 5.0 mi NNW 8.1 mph - N/A   Overcast
4:36 AM 26.6 °F 18.2 °F 21.2 °F 80% 29.15 in 7.0 mi NNW 8.1 mph - N/A   Mostly Cloudy
4:56 AM 26.6 °F 18.2 °F 23.0 °F 86% 29.14 in 10.0 mi North 8.1 mph - N/A   Overcast
5:16 AM 26.6 °F 21.2 °F 21.2 °F 80% 29.13 in 9.0 mi North 4.6 mph - N/A   Overcast
5:36 AM 26.6 °F 20.0 °F 21.2 °F 80% 29.13 in 4.0 mi North 5.8 mph - N/A   Overcast
5:56 AM 26.6 °F 16.8 °F 21.2 °F 80% 29.12 in 3.0 mi NW 10.4 mph - N/A   Overcast
6:16 AM 26.6 °F 17.5 °F 21.2 °F 80% 29.11 in 3.0 mi NNW 9.2 mph - N/A   Overcast
6:36 AM 26.6 °F 19.1 °F 21.2 °F 80% 29.11 in 3.0 mi NNW 6.9 mph - N/A   Overcast
6:56 AM 26.6 °F 21.2 °F 21.2 °F 80% 29.10 in 3.0 mi NNW 4.6 mph - N/A   Overcast
7:16 AM 26.6 °F 17.5 °F 21.2 °F 80% 29.10 in 3.0 mi NW 9.2 mph - N/A   Overcast
7:36 AM 26.6 °F 22.6 °F 21.2 °F 80% 29.11 in 3.0 mi NNW 3.5 mph - N/A   Overcast
7:56 AM 26.6 °F 18.2 °F 19.4 °F 74% 29.11 in 2.0 mi NNW 8.1 mph - N/A   Overcast
8:16 AM 26.6 °F 18.2 °F 21.2 °F 80% 29.11 in 2.0 mi NNW 8.1 mph - N/A   Overcast
8:36 AM 24.8 °F 15.3 °F 19.4 °F 80% 29.12 in 2.0 mi NNW 9.2 mph - N/A   Overcast
8:56 AM 24.8 °F 16.1 °F 19.4 °F 80% 29.12 in 2.0 mi NNW 8.1 mph - N/A   Overcast
9:16 AM 24.8 °F 15.3 °F 19.4 °F 80% 29.13 in 2.0 mi NNW 9.2 mph - N/A   Overcast
9:36 AM 24.8 °F 16.1 °F 19.4 °F 80% 29.14 in 2.0 mi NNW 8.1 mph - N/A   Overcast
9:56 AM 24.8 °F 16.1 °F 19.4 °F 80% 29.15 in 2.0 mi NNW 8.1 mph - N/A   Overcast
10:16 AM 24.8 °F 16.9 °F 19.4 °F 80% 29.16 in 2.0 mi NNW 6.9 mph - N/A   Overcast
10:36 AM 24.8 °F 19.1 °F 19.4 °F 80% 29.17 in 2.0 mi NNW 4.6 mph - N/A   Overcast
10:56 AM 24.8 °F 17.9 °F 19.4 °F 80% 29.18 in 2.0 mi NW 5.8 mph - N/A   Overcast
11:16 AM 26.6 °F 20.0 °F 19.4 °F 74% 29.19 in 2.0 mi NW 5.8 mph - N/A   Overcast
11:36 AM 24.8 °F 17.9 °F 19.4 °F 80% 29.21 in 2.0 mi NNW 5.8 mph - N/A   Overcast
11:56 AM 24.8 °F 16.9 °F 19.4 °F 80% 29.22 in 2.0 mi NNW 6.9 mph - N/A   Overcast
12:16 PM 24.8 °F 16.9 °F 19.4 °F 80% 29.24 in 2.0 mi NNW 6.9 mph - N/A   Overcast
12:36 PM 24.8 °F 20.5 °F 21.2 °F 86% 29.25 in 2.0 mi NNW 3.5 mph - N/A   Overcast
12:56 PM 26.6 °F 20.0 °F 21.2 °F 80% 29.26 in 2.0 mi NNW 5.8 mph - N/A   Overcast
1:16 PM 26.6 °F 20.0 °F 21.2 °F 80% 29.26 in 2.0 mi NNW 5.8 mph - N/A   Overcast
1:36 PM 26.6 °F 21.2 °F 19.4 °F 74% 29.27 in 2.0 mi NNW 4.6 mph - N/A   Overcast
1:56 PM 26.6 °F 20.0 °F 21.2 °F 80% 29.28 in 1.0 mi NNW 5.8 mph - N/A   Overcast
2:16 PM 26.6 °F 20.0 °F 21.2 °F 80% 29.30 in 1.0 mi NNW 5.8 mph - N/A   Overcast
2:36 PM 26.6 °F 20.0 °F 21.2 °F 80% 29.31 in 1.0 mi NNW 5.8 mph - N/A   Overcast
2:56 PM 26.6 °F 21.2 °F 21.2 °F 80% 29.32 in 3.0 mi NNW 4.6 mph - N/A   Overcast
3:16 PM 26.6 °F 22.6 °F 23.0 °F 86% 29.33 in 3.0 mi North 3.5 mph - N/A   Overcast
3:36 PM 26.6 °F 20.0 °F 21.2 °F 80% 29.34 in 3.0 mi NNW 5.8 mph - N/A   Overcast
3:56 PM 26.6 °F 19.1 °F 21.2 °F 80% 29.35 in 3.0 mi NNW 6.9 mph - N/A   Overcast
4:16 PM 26.6 °F 20.0 °F 21.2 °F 80% 29.36 in 5.0 mi NNW 5.8 mph - N/A   Overcast
4:36 PM 26.6 °F 21.2 °F 23.0 °F 86% 29.36 in 5.0 mi North 4.6 mph - N/A   Overcast
4:56 PM 26.6 °F 21.2 °F 21.2 °F 80% 29.37 in 5.0 mi NW 4.6 mph - N/A   Overcast
5:16 PM 28.4 °F - 23.0 °F 80% 29.38 in 5.0 mi Calm Calm - N/A   Overcast
5:36 PM 26.6 °F - 21.2 °F 80% 29.38 in 5.0 mi Calm Calm - N/A   Overcast
5:56 PM 28.4 °F 23.3 °F 21.2 °F 74% 29.38 in 5.0 mi WNW 4.6 mph - N/A   Overcast
6:16 PM 28.4 °F 23.3 °F 21.2 °F 74% 29.38 in 8.0 mi North 4.6 mph - N/A   Overcast
6:36 PM 28.4 °F 22.2 °F 23.0 °F 80% 29.39 in 8.0 mi North 5.8 mph - N/A   Overcast
6:56 PM 28.4 °F 24.6 °F 23.0 °F 80% 29.40 in 8.0 mi NNW 3.5 mph - N/A   Overcast
7:16 PM 28.4 °F 24.6 °F 23.0 °F 80% 29.40 in 8.0 mi North 3.5 mph - N/A   Overcast
7:36 PM 28.4 °F - 21.2 °F 74% 29.40 in 8.0 mi Calm Calm - N/A   Overcast
7:56 PM 28.4 °F - 21.2 °F 74% 29.41 in 10.0 mi Calm Calm - N/A   Overcast
8:16 PM 28.4 °F - 21.2 °F 74% 29.41 in 10.0 mi Calm Calm - N/A   Overcast
8:36 PM 28.4 °F 24.6 °F 21.2 °F 74% 29.42 in 10.0 mi WSW 3.5 mph - N/A   Overcast
8:56 PM 26.6 °F 20.0 °F 21.2 °F 80% 29.42 in 10.0 mi NNW 5.8 mph - N/A   Overcast
9:16 PM 26.6 °F 19.1 °F 21.2 °F 80% 29.43 in 10.0 mi NNW 6.9 mph - N/A   Overcast
9:36 PM 28.4 °F 23.3 °F 21.2 °F 74% 29.43 in 10.0 mi NNW 4.6 mph - N/A   Overcast
9:56 PM 28.4 °F 23.3 °F 21.2 °F 74% 29.44 in 10.0 mi North 4.6 mph - N/A   Overcast
10:16 PM 28.4 °F 23.3 °F 23.0 °F 80% 29.45 in 10.0 mi SSE 4.6 mph - N/A   Overcast
10:36 PM 26.6 °F 22.6 °F 21.2 °F 80% 29.46 in 10.0 mi SSE 3.5 mph - N/A   Overcast
10:56 PM 26.6 °F 21.2 °F 21.2 °F 80% 29.46 in 10.0 mi NNW 4.6 mph - N/A   Overcast
11:16 PM 26.6 °F - 21.2 °F 80% 29.47 in 10.0 mi Calm Calm - N/A   Overcast
11:36 PM 28.4 °F - 21.2 °F 74% 29.48 in 10.0 mi Calm Calm - N/A   Overcast
11:56 PM 28.4 °F - 21.2 °F 74% 29.49 in 10.0 mi Calm Calm - N/A   Overcast